[[{"header":{"parameterUnit":"m.s-1","parameterCategory":1,"la1":30.2991,"la2":30.254,"lo1":-89.0895,"lo2":-89.0444,"dy":0.0017,"dx":0.0017,"nx":28,"ny":28,"refTime":"2023-07-30T09:00:00:Z","depth":0,"parameterNumber":2,"parameterNumberName":"U-component_of_WINDS"},"data":[0,0,0,0,0,0,0,0,0,0,0,0,0,0,0,0,0,0,0,0,0,0,0,0,0,0,0,0,0,0,0,0,0,0,0,0,0,0,0,0,0,0,0,0,0,0,0,0,0,0,0,0,0,0,0,0,0,0,2.5346,2.5347,0,2.5393,2.5393,2.5394,2.5358,2.5357,2.5355,2.5354,2.5405,2.5408,2.541,0,0,0,0,0,0,0,0,0,0,0,0,0,2.5232,2.5234,2.5346,2.5347,2.5347,2.5393,2.5393,2.5394,2.5359,2.5357,2.5355,2.5353,2.5404,2.5407,2.5411,0,0,0,0,0,0,0,0,0,0,0,0,0,2.528,2.5235,2.5346,2.5335,2.5335,2.5393,2.5393,2.5394,2.5359,2.5357,2.5354,2.5352,2.5403,2.5407,2.5411,2.5483,0,0,2.5424,2.5426,0,0,0,0,0,0,0,0,2.5278,2.5285,2.5336,2.5336,2.5335,2.5367,2.5372,2.5424,2.536,2.535,2.5354,2.5351,2.5395,2.5399,2.5413,2.5486,2.5488,2.5424,2.5427,2.5429,2.543,0,0,0,0,0,0,0,2.5274,2.5282,2.5365,2.5337,2.5337,2.533,2.5334,2.5381,2.5385,2.5351,2.5348,2.5354,2.5394,2.5409,2.5414,2.5489,2.5424,2.5428,2.5431,2.5432,2.5627,2.5629,0,0,0,0,0,0,2.5271,2.528,2.5363,2.5366,2.53,2.5334,2.5338,2.536,2.5384,2.5386,2.5356,2.5352,2.5403,2.5409,2.5416,2.5504,2.5429,2.5433,2.5435,2.5624,2.5627,2.563,0,0,0,0,0,0,2.5269,2.5279,2.5361,2.5322,2.5332,2.5338,2.5362,2.5362,2.5377,2.5388,2.5389,2.5371,2.5402,2.541,2.5467,2.5506,2.5435,2.5438,2.5621,2.5625,2.5629,2.5681,0,0,0,0,0,0,2.5266,2.5278,2.5305,2.5323,2.5334,2.5411,2.5364,2.5364,2.5384,2.5379,2.5402,2.5404,2.54,2.5461,2.5472,2.551,2.5442,2.5618,2.5623,2.5628,2.5676,2.5686,2.5695,0,0,0,0,0,2.5262,2.5317,2.5306,2.5316,2.5367,2.5413,2.5419,2.5414,2.5387,2.5414,2.5422,2.5403,2.55,2.5468,2.5479,2.5519,2.5615,2.5621,2.5627,2.5671,2.5684,2.5695,0,0,0,0,0,0,2.5304,2.5319,2.5307,2.537,2.539,2.5407,2.5441,2.5427,2.5456,2.5451,2.5443,2.5449,2.551,2.552,2.5484,2.5592,2.5553,2.5562,2.5583,2.5595,2.5605,2.5602,2.5445,0,0,0,0,0,2.532,2.5354,2.5367,2.5421,2.5432,2.5435,2.5455,2.5449,2.547,2.5479,2.549,2.5513,2.5549,2.5572,2.5606,2.5677,2.5683,2.571,2.572,2.5728,2.5736,2.5778,2.5791,2.565,2.565,2.565,0,0,2.5354,2.5367,2.5389,2.543,2.5445,2.5483,2.5442,2.5483,2.5512,2.5485,2.5541,2.555,2.5575,2.5641,2.567,2.5651,2.5776,2.5735,2.5742,2.5745,2.5785,2.5798,2.581,2.5654,2.5653,2.5652,0,0,2.5437,2.5449,2.5497,2.5513,2.5536,2.5538,2.555,2.5569,2.5575,2.563,2.5611,2.5646,2.5707,2.5727,2.5745,2.5838,2.5822,2.5849,2.5899,2.594,2.5951,2.5961,2.5997,2.6009,2.5856,2.5856,2.5856,0,2.5477,2.5532,2.5523,2.5567,2.5587,2.5563,2.5613,2.563,2.5664,2.5679,2.5656,2.5735,2.5749,2.5821,2.5844,2.5858,2.5873,2.5846,2.595,2.596,2.5969,2.6003,2.6016,2.586,2.5859,2.5859,2.5859,0,2.5581,2.562,2.5656,2.5689,2.5713,2.5759,2.576,2.5786,2.5778,2.5783,2.5842,2.5859,2.5897,2.5913,2.5906,2.5985,2.5973,2.595,2.5912,2.5986,2.6018,2.6031,2.5864,2.5863,2.5862,2.5861,0,0,2.5691,2.572,2.5733,2.5749,2.5775,2.5805,2.5852,2.5889,2.5912,2.5936,2.5977,2.6031,2.6011,2.6032,2.6027,2.6062,2.6139,2.6036,2.6037,2.6057,2.623,2.6248,2.6263,2.6128,2.613,2.6132,2.6228,0,2.5776,2.5856,2.5851,2.5928,2.5965,2.5945,2.5986,2.6008,2.6014,2.6049,2.6056,2.6095,2.6065,2.6078,2.6112,2.6122,2.6174,2.6115,2.6169,2.6171,2.6165,2.6279,2.6297,2.6387,2.6241,2.6243,2.6244,0,2.5886,2.5915,2.5995,2.6017,2.6033,2.607,2.6105,2.6137,2.6162,2.6164,2.6188,2.6178,2.6228,2.6188,2.6258,2.6218,2.624,2.6249,2.6252,2.6259,2.6213,2.629,2.6415,2.643,2.6263,2.6262,2.626,0,2.5961,2.602,2.6076,2.609,2.6117,2.6144,2.6156,2.6179,2.6202,2.6233,2.6248,2.6285,2.6305,2.6335,2.6336,2.6306,2.6409,2.6367,2.6414,2.6415,2.6438,2.6437,2.657,2.6449,2.6449,2.6448,2.6448,0,2.6058,2.6109,2.611,2.6145,2.6202,2.6197,2.6254,2.6264,2.6285,2.6323,2.6308,2.6344,2.6343,2.6381,2.6382,2.6442,2.6451,2.6456,2.6457,2.6459,2.6459,2.6474,2.6469,2.6452,2.6451,2.645,2.645,0,2.6152,2.6154,2.6215,2.6236,2.6242,2.6284,2.6302,2.6337,2.6342,2.6391,2.6403,2.6412,2.6456,2.646,2.6511,2.6513,2.6586,2.6578,2.6577,2.6577,2.6625,2.6621,2.6775,2.6796,2.6659,2.666,2.6661,0,2.6214,2.6253,2.6278,2.6302,2.6317,2.6355,2.6379,2.6377,2.6403,2.6435,2.6467,2.6509,2.6543,2.6615,2.6628,2.6668,2.6662,2.6713,2.6668,2.667,2.6666,2.6665,2.667,2.6723,2.6724,2.6725,2.6726,0,2.6326,2.6326,2.636,2.6396,2.6425,2.6454,2.648,2.6501,2.6502,2.6532,2.6577,2.6603,2.6656,2.67,2.6739,2.6754,2.6742,2.674,2.6754,2.6757,2.6757,2.676,2.6604,2.6737,2.6736,2.6735,2.6735,2.6734,2.6408,2.6442,2.6466,2.6506,2.6526,2.6551,2.6585,2.6596,2.6633,2.6675,2.6671,2.6722,2.6749,2.68,2.6819,2.686,2.6843,2.6862,2.6867,2.6872,2.6878,2.6748,2.6867,2.6866,2.6866,2.6866,2.6865,0,2.6521,2.6536,2.6572,2.661,2.6642,2.6626,2.6655,2.6684,2.6728,2.6754,2.6788,2.6841,2.6883,2.69,2.6942,2.6972,2.6968,2.6984,2.6983,2.6987,2.689,2.6875,2.6987,2.6987,2.6987,2.6987,2.6987,2.6987,2.6584,2.6642,2.6646,2.6715,2.6729,2.6778,2.6797,2.6821,2.6842,2.6902,2.6937,2.6947,2.697,2.7014,2.7054,2.7058,2.7076,2.7095,2.7097,2.7006,2.6993,2.6982,2.6968,2.7098,2.7098,2.7191,2.7192,2.7192]},{"header":{"parameterUnit":"m.s-1","parameterCategory":1,"la1":30.2991,"la2":30.254,"lo1":-89.0895,"lo2":-89.0444,"dy":0.0017,"dx":0.0017,"nx":28,"ny":28,"refTime":"2023-07-30T09:00:00:Z","depth":0,"parameterNumber":3,"parameterNumberName":"V-component_of_WINDS"},"data":[0,0,0,0,0,0,0,0,0,0,0,0,0,0,0,0,0,0,0,0,0,0,0,0,0,0,0,0,0,0,0,0,0,0,0,0,0,0,0,0,0,0,0,0,0,0,0,0,0,0,0,0,0,0,0,0,0,0,-1.9512,-1.9511,0,-1.9418,-1.9417,-1.9416,-1.9373,-1.9373,-1.9373,-1.9374,-1.9274,-1.9271,-1.9269,0,0,0,0,0,0,0,0,0,0,0,0,0,-1.9653,-1.965,-1.9512,-1.9511,-1.9509,-1.9418,-1.9417,-1.9415,-1.9373,-1.9373,-1.9373,-1.9374,-1.9275,-1.9272,-1.9268,0,0,0,0,0,0,0,0,0,0,0,0,0,-1.9578,-1.9649,-1.9512,-1.9477,-1.9473,-1.9418,-1.9417,-1.9415,-1.9373,-1.9373,-1.9374,-1.9374,-1.9276,-1.9272,-1.9268,-1.9239,0,0,-1.9255,-1.9254,0,0,0,0,0,0,0,0,-1.9583,-1.9573,-1.9484,-1.948,-1.9475,-1.9407,-1.943,-1.9356,-1.9373,-1.9411,-1.9374,-1.9374,-1.9318,-1.931,-1.9292,-1.9234,-1.923,-1.9255,-1.9252,-1.9251,-1.9249,0,0,0,0,0,0,0,-1.9588,-1.9577,-1.9474,-1.9482,-1.9477,-1.9466,-1.9456,-1.9416,-1.9365,-1.9408,-1.9405,-1.9394,-1.9316,-1.9296,-1.929,-1.9229,-1.9255,-1.9251,-1.9249,-1.9247,-1.9143,-1.9143,0,0,0,0,0,0,-1.9599,-1.9582,-1.9477,-1.9472,-1.953,-1.9463,-1.9452,-1.9429,-1.9365,-1.9355,-1.9394,-1.9393,-1.9303,-1.9295,-1.9286,-1.9249,-1.9251,-1.9247,-1.9244,-1.9144,-1.9143,-1.9143,0,0,0,0,0,0,-1.9602,-1.959,-1.9481,-1.9526,-1.9511,-1.9461,-1.9435,-1.9427,-1.9408,-1.9355,-1.9345,-1.9384,-1.9303,-1.9292,-1.9251,-1.9245,-1.9245,-1.9241,-1.9144,-1.9143,-1.9143,-1.9173,0,0,0,0,0,0,-1.9606,-1.9591,-1.958,-1.9526,-1.9509,-1.9449,-1.9435,-1.9425,-1.9401,-1.9398,-1.9343,-1.9334,-1.9302,-1.9258,-1.9247,-1.9239,-1.9238,-1.9144,-1.9144,-1.9143,-1.9173,-1.9174,-1.9175,0,0,0,0,0,-1.9612,-1.9591,-1.958,-1.9567,-1.9494,-1.9448,-1.9439,-1.9404,-1.9401,-1.9389,-1.9355,-1.9335,-1.9247,-1.9254,-1.9242,-1.9232,-1.9144,-1.9144,-1.9143,-1.9172,-1.9174,-1.9175,0,0,0,0,0,0,-1.9645,-1.9584,-1.957,-1.9532,-1.9496,-1.9441,-1.9425,-1.9407,-1.937,-1.9369,-1.9327,-1.9315,-1.9278,-1.9251,-1.926,-1.9201,-1.9194,-1.9191,-1.922,-1.9221,-1.9223,-1.923,-1.9235,0,0,0,0,0,-1.9648,-1.9617,-1.9565,-1.9536,-1.9519,-1.9476,-1.9454,-1.9432,-1.9392,-1.9376,-1.9339,-1.9301,-1.9265,-1.9242,-1.9205,-1.9169,-1.9156,-1.9156,-1.9157,-1.9159,-1.9156,-1.9136,-1.9135,-1.9141,-1.9141,-1.9141,0,0,-1.9653,-1.9616,-1.9599,-1.9542,-1.9511,-1.948,-1.9463,-1.943,-1.9406,-1.9371,-1.9331,-1.9303,-1.9257,-1.9219,-1.92,-1.9195,-1.9152,-1.9158,-1.9159,-1.9156,-1.9135,-1.9135,-1.9134,-1.914,-1.914,-1.9141,0,0,-1.9648,-1.9617,-1.959,-1.956,-1.9515,-1.9486,-1.948,-1.9429,-1.9409,-1.9369,-1.9342,-1.9313,-1.9251,-1.922,-1.9196,-1.9181,-1.9162,-1.9171,-1.9177,-1.9157,-1.9157,-1.9156,-1.9151,-1.915,-1.9169,-1.9169,-1.9169,0,-1.966,-1.9612,-1.9578,-1.9547,-1.9523,-1.9492,-1.9464,-1.9437,-1.9381,-1.9365,-1.9361,-1.9284,-1.9251,-1.9206,-1.9202,-1.9184,-1.9175,-1.9176,-1.916,-1.9159,-1.9158,-1.9153,-1.9151,-1.917,-1.917,-1.917,-1.917,0,-1.963,-1.9598,-1.9581,-1.9531,-1.9505,-1.9476,-1.9437,-1.9414,-1.9394,-1.9366,-1.9326,-1.9286,-1.9242,-1.9229,-1.9208,-1.9181,-1.918,-1.9168,-1.916,-1.9159,-1.9154,-1.9151,-1.9172,-1.9171,-1.9171,-1.9171,0,0,-1.9641,-1.9573,-1.9568,-1.9545,-1.9494,-1.9467,-1.9437,-1.9395,-1.9377,-1.9341,-1.9314,-1.9264,-1.9254,-1.9227,-1.9202,-1.9186,-1.9177,-1.9176,-1.9174,-1.9178,-1.9146,-1.9155,-1.9153,-1.9164,-1.9164,-1.9163,-1.9149,0,-1.9628,-1.9574,-1.9543,-1.9501,-1.9471,-1.9442,-1.9415,-1.9381,-1.9355,-1.9325,-1.9295,-1.926,-1.9249,-1.9233,-1.9215,-1.9182,-1.917,-1.9183,-1.9139,-1.9138,-1.9151,-1.915,-1.9158,-1.9147,-1.9147,-1.9147,-1.9146,0,-1.9605,-1.9571,-1.9527,-1.9481,-1.9467,-1.9444,-1.9404,-1.9376,-1.9336,-1.9318,-1.929,-1.9266,-1.9233,-1.9228,-1.9182,-1.9191,-1.9172,-1.9153,-1.9152,-1.9146,-1.9142,-1.9144,-1.9143,-1.9141,-1.9142,-1.9143,-1.9143,0,-1.9618,-1.9561,-1.9528,-1.9509,-1.9454,-1.9439,-1.9415,-1.9375,-1.9353,-1.9317,-1.9302,-1.9263,-1.9242,-1.9212,-1.9178,-1.9178,-1.9136,-1.9128,-1.912,-1.9121,-1.9111,-1.9112,-1.9107,-1.9099,-1.9099,-1.9099,-1.9099,0,-1.9607,-1.9581,-1.9533,-1.9512,-1.9483,-1.9448,-1.9419,-1.9393,-1.9359,-1.9332,-1.9304,-1.9279,-1.9237,-1.9207,-1.918,-1.9146,-1.9137,-1.9121,-1.9114,-1.9123,-1.9125,-1.911,-1.9109,-1.9099,-1.9099,-1.9099,-1.9099,0,-1.9616,-1.9583,-1.9544,-1.9496,-1.9483,-1.9464,-1.9422,-1.9401,-1.9374,-1.9341,-1.9331,-1.9288,-1.9252,-1.9216,-1.9166,-1.9148,-1.9115,-1.9106,-1.9129,-1.9125,-1.9119,-1.912,-1.9103,-1.9099,-1.9094,-1.9094,-1.9094,0,-1.9611,-1.9591,-1.9541,-1.9522,-1.9499,-1.9469,-1.9446,-1.9411,-1.9388,-1.9343,-1.9328,-1.929,-1.9257,-1.9201,-1.9165,-1.9127,-1.9116,-1.9113,-1.911,-1.9121,-1.9117,-1.9118,-1.9116,-1.9114,-1.9114,-1.9115,-1.9115,0,-1.9605,-1.9591,-1.9559,-1.9523,-1.9497,-1.9467,-1.9435,-1.9421,-1.938,-1.9356,-1.9319,-1.9294,-1.9245,-1.9208,-1.9166,-1.9141,-1.9121,-1.9116,-1.9112,-1.9121,-1.9136,-1.9128,-1.9132,-1.9116,-1.9116,-1.9116,-1.9116,-1.9116,-1.9607,-1.9588,-1.9551,-1.9518,-1.9491,-1.9462,-1.944,-1.9411,-1.9381,-1.9339,-1.932,-1.9284,-1.9245,-1.9188,-1.9163,-1.9134,-1.9129,-1.9123,-1.9121,-1.912,-1.9123,-1.9141,-1.9126,-1.9126,-1.9126,-1.9126,-1.9126,0,-1.96,-1.9576,-1.9546,-1.9503,-1.9477,-1.9462,-1.9427,-1.9406,-1.9374,-1.9341,-1.9311,-1.927,-1.9234,-1.9196,-1.9158,-1.9142,-1.9132,-1.9133,-1.9133,-1.9128,-1.9129,-1.9137,-1.9142,-1.9142,-1.9142,-1.9142,-1.9142,-1.9142,-1.9594,-1.9562,-1.9543,-1.9497,-1.9472,-1.9437,-1.9418,-1.9392,-1.9365,-1.9321,-1.9292,-1.9268,-1.9233,-1.9192,-1.9159,-1.9148,-1.9136,-1.914,-1.9127,-1.9129,-1.9128,-1.9127,-1.9133,-1.9137,-1.9137,-1.9128,-1.9127,-1.9127]}]]